EDT,Max TemperatureF,Mean TemperatureF,Min TemperatureF,Max Dew PointF,MeanDew PointF,Min DewpointF,Max Humidity, Mean Humidity, Min Humidity, Max Sea Level PressureIn, Mean Sea Level PressureIn, Min Sea Level PressureIn, Max VisibilityMiles, Mean VisibilityMiles, Min VisibilityMiles, Max Wind SpeedMPH, Mean Wind SpeedMPH, Max Gust SpeedMPH,PrecipitationIn, CloudCover, Events, WindDirDegrees
2013-3-1,30,24,17,17,14,10,73,66,51,30.14,30.08,29.99,10,10,10,12,7,,0.00,5,,3
2013-3-2,29,18,8,14,11,5,89,69,51,30.12,30.09,30.04,10,10,7,13,5,,0.00,4,Snow,351
2013-3-3,28,16,5,15,10,1,83,66,53,30.05,30.02,29.98,10,10,10,14,7,18,0.00,3,,347
2013-3-4,37,18,1,14,8,-4,85,66,30,30.12,30.07,30.03,10,10,10,6,0,,0.00,2,,332
2013-3-5,33,18,5,22,15,1,83,70,57,30.09,29.97,29.88,10,10,10,16,4,26,0.00,4,,86
2013-3-6,41,34,27,28,26,23,90,70,54,30.19,30.09,29.96,10,10,5,15,6,20,0.00,8,Snow,11
2013-3-7,36,30,21,28,19,14,84,64,42,30.38,30.30,30.20,10,10,5,12,6,16,0.00,5,Snow,336
2013-3-8,40,25,10,20,14,6,84,66,36,30.47,30.41,30.35,10,10,10,9,1,,0.00,0,,176
2013-3-9,41,28,16,32,22,14,92,71,49,30.34,30.17,29.94,10,9,7,15,4,20,0.00,4,Rain,149
2013-3-10,44,40,36,43,38,31,97,90,72,29.93,29.82,29.69,10,4,0,9,4,,0.00,8,Fog-Rain-Snow,152
2013-3-11,46,40,34,46,40,32,98,96,91,29.69,29.55,29.41,10,3,0,17,3,26,0.00,8,Fog-Rain-Snow,197
2013-3-12,34,30,25,32,25,21,94,79,64,29.84,29.75,29.59,10,7,2,16,9,22,0.00,8,Snow,264
2013-3-13,30,26,21,23,15,8,89,65,41,30.17,30.01,29.82,10,8,0,21,11,30,0.00,5,Snow,305
2013-3-14,38,25,12,20,14,9,86,60,34,30.22,30.15,30.01,10,10,10,14,3,,0.00,0,,268
2013-3-15,37,34,30,29,25,18,82,70,50,30.00,29.88,29.84,10,9,5,12,7,18,0.00,7,,313
2013-3-16,32,26,19,22,17,12,86,68,49,30.03,29.88,29.78,10,8,1,14,7,,0.00,6,Snow,4
2013-3-17,29,24,19,18,10,5,78,55,36,30.25,30.16,30.02,10,10,7,13,5,20,0.00,3,Snow,77
2013-3-18,33,26,19,31,20,10,96,77,59,30.13,29.77,29.51,10,7,0,15,7,22,0.00,4,Snow,112
2013-3-19,33,26,20,29,16,11,85,71,58,29.87,29.69,29.51,10,4,0,20,12,31,0.00,8,Snow,255
2013-3-20,24,19,14,13,10,7,82,67,53,29.90,29.87,29.84,10,8,2,18,8,29,0.00,4,Snow,272
2013-3-21,30,23,16,21,17,11,83,71,57,29.93,29.86,29.82,10,9,2,21,10,26,0.00,8,Snow,299
2013-3-22,35,30,24,22,18,16,73,65,49,30.01,29.95,29.92,10,10,10,12,7,16,0.00,7,,314
2013-3-23,36,32,28,22,21,19,75,64,51,30.10,30.05,30.01,10,10,10,9,5,,0.00,8,,358
2013-3-24,37,30,24,22,20,16,81,61,45,30.04,29.88,29.72,10,10,10,14,6,21,0.00,6,,47
2013-3-25,37,32,28,25,22,19,75,66,52,29.96,29.79,29.69,10,10,10,16,10,25,0.00,7,Snow,4
2013-3-26,40,36,32,33,27,22,92,72,51,30.13,30.04,29.97,10,10,0,14,8,20,0.00,7,Snow,315
2013-3-27,43,36,30,26,23,18,80,62,37,30.21,30.16,30.13,10,10,10,18,10,29,0.00,0,,301
2013-3-28,47,37,27,27,22,18,91,60,31,30.26,30.24,30.20,10,10,10,15,5,20,0.00,0,,296
2013-3-29,50,36,23,27,21,15,93,60,26,30.26,30.23,30.18,10,10,10,14,2,12,0.00,0,,276
2013-3-30,52,38,23,33,22,14,93,56,24,30.20,30.05,29.83,10,10,10,15,3,23,0.00,2,Rain,178
2013-3-31,45,39,32,41,35,24,96,79,59,29.83,29.68,29.63,10,6,1,18,7,29,0.00,8,Rain-Snow,254